{"data":{"norad_id":63880,"epoch":"2026-05-25T03:34:56.163360Z","epoch_age_seconds":61872,"freshness":"FRESH","line1":"1 63880U 25094S   26145.14926115  .00003399  00000+0  29246-3 0  9991","line2":"2 63880  70.0020  41.7769 0002814 264.9307  95.1531 14.98339997 58656","mean_motion":14.98339997,"eccentricity":0.0002814,"inclination_deg":70.002,"raan_deg":41.7769,"arg_perigee_deg":264.9307,"mean_anomaly_deg":95.1531,"bstar":0.00029246,"rev_number":5865,"period_min":96.10635789495,"perigee_km":570.06920063835,"apogee_km":573.98075179857,"semimajor_km":6950.1619762185,"source":"CELESTRAK","updated_at":"2026-05-25T13:38:20.172363Z"}}